Time,TemperatureF,DewpointF,PressureIn,WindDirection,WindDirectionDegrees,WindSpeedMPH,WindSpeedGustMPH,Humidity,HourlyPrecipIn,Conditions,Clouds,dailyrainin,SoftwareType,DateUTC
2013-04-13 00:02:00,43.0,39.0,30.03,North,0,0.0,-999.0,86,-99.99,,,-99.99,,2013-04-13 05:02:00,
2013-04-13 00:12:00,41.0,39.0,30.03,North,0,0.0,-999.0,93,-99.99,,,-99.99,,2013-04-13 05:12:00,
2013-04-13 00:22:00,43.0,39.0,30.03,North,0,0.0,-999.0,86,-99.99,,,-99.99,,2013-04-13 05:22:00,
2013-04-13 00:32:00,39.0,37.0,30.03,North,0,0.0,-999.0,93,-99.99,,,-99.99,,2013-04-13 05:32:00,
2013-04-13 00:42:00,39.0,37.0,30.04,North,360,6.0,-999.0,93,-99.99,,,-99.99,,2013-04-13 05:42:00,
2013-04-13 00:52:00,39.0,37.0,30.04,North,350,6.0,-999.0,93,-99.99,,,-99.99,,2013-04-13 05:52:00,
2013-04-13 01:02:00,39.0,37.0,30.04,North,350,6.0,-999.0,93,-99.99,,,-99.99,,2013-04-13 06:02:00,
2013-04-13 01:12:00,39.0,37.0,30.04,North,0,0.0,-999.0,93,-99.99,,,-99.99,,2013-04-13 06:12:00,
2013-04-13 01:23:00,39.0,37.0,30.04,North,0,0.0,-999.0,93,-99.99,,,-99.99,,2013-04-13 06:23:00,
2013-04-13 01:34:00,39.0,37.0,30.04,North,0,0.0,-999.0,93,-99.99,,,-99.99,,2013-04-13 06:34:00,
2013-04-13 01:45:00,39.0,37.0,30.04,North,0,0.0,-999.0,93,-99.99,,,-99.99,,2013-04-13 06:45:00,
2013-04-13 01:53:00,39.0,37.0,30.04,North,0,0.0,-999.0,93,-99.99,,,-99.99,,2013-04-13 06:53:00,
2013-04-13 02:05:00,39.0,37.0,30.04,North,0,0.0,-999.0,93,-99.99,,,-99.99,,2013-04-13 07:05:00,
2013-04-13 02:14:00,39.0,37.0,30.03,North,0,0.0,-999.0,93,-99.99,,,-99.99,,2013-04-13 07:14:00,
2013-04-13 02:23:00,39.0,37.0,30.03,North,0,0.0,-999.0,93,-99.99,,,-99.99,,2013-04-13 07:23:00,
2013-04-13 02:44:00,39.0,37.0,30.03,North,0,0.0,-999.0,93,-99.99,,,-99.99,,2013-04-13 07:44:00,
2013-04-13 02:54:00,39.0,36.0,30.03,NNE,20,5.0,-999.0,86,-99.99,,,-99.99,,2013-04-13 07:54:00,
2013-04-13 03:14:00,37.0,36.0,30.03,North,10,3.0,-999.0,93,-99.99,,,-99.99,,2013-04-13 08:14:00,
2013-04-13 03:24:00,37.0,36.0,30.03,North,10,3.0,-999.0,93,-99.99,,,-99.99,,2013-04-13 08:24:00,
2013-04-13 03:34:00,37.0,36.0,30.03,North,0,0.0,-999.0,93,-99.99,,,-99.99,,2013-04-13 08:34:00,
2013-04-13 03:44:00,37.0,36.0,30.03,North,0,0.0,-999.0,93,-99.99,,,-99.99,,2013-04-13 08:44:00,
2013-04-13 03:53:00,37.0,37.0,30.02,North,0,0.0,-999.0,100,-99.99,,,-99.99,,2013-04-13 08:53:00,
2013-04-13 04:04:00,37.0,37.0,30.02,North,0,0.0,-999.0,100,-99.99,,,-99.99,,2013-04-13 09:04:00,
2013-04-13 04:14:00,37.0,37.0,30.02,East,100,3.0,-999.0,100,-99.99,,,-99.99,,2013-04-13 09:14:00,
2013-04-13 04:24:00,39.0,37.0,30.01,ESE,110,3.0,-999.0,93,-99.99,,,-99.99,,2013-04-13 09:24:00,
2013-04-13 04:35:00,37.0,36.0,30.01,North,0,0.0,-999.0,93,-99.99,,,-99.99,,2013-04-13 09:35:00,
2013-04-13 04:47:00,37.0,36.0,30.01,North,0,0.0,-999.0,93,-99.99,,,-99.99,,2013-04-13 09:47:00,
2013-04-13 05:15:00,36.0,34.0,30.01,NNE,30,5.0,-999.0,93,-99.99,,,-99.99,,2013-04-13 10:15:00,
2013-04-13 05:36:00,36.0,36.0,30.01,ENE,60,5.0,-999.0,100,-99.99,,,-99.99,,2013-04-13 10:36:00,
2013-04-13 05:45:00,36.0,36.0,30.01,ENE,60,5.0,-999.0,100,-99.99,,,-99.99,,2013-04-13 10:45:00,
2013-04-13 05:53:00,36.0,34.0,30.01,ENE,60,5.0,-999.0,93,-99.99,,,-99.99,,2013-04-13 10:53:00,
2013-04-13 06:05:00,36.0,34.0,30.01,ENE,60,5.0,-999.0,93,-99.99,,,-99.99,,2013-04-13 11:05:00,
2013-04-13 06:13:00,36.0,34.0,30.01,ENE,60,3.0,-999.0,93,-99.99,,,-99.99,,2013-04-13 11:13:00,
2013-04-13 06:23:00,36.0,34.0,30.00,NE,50,5.0,-999.0,93,-99.99,,,-99.99,,2013-04-13 11:23:00,
2013-04-13 06:33:00,36.0,34.0,30.00,NE,50,3.0,-999.0,93,-99.99,,,-99.99,,2013-04-13 11:33:00,
2013-04-13 06:44:00,36.0,34.0,30.00,ENE,60,5.0,-999.0,93,-99.99,,,-99.99,,2013-04-13 11:44:00,
2013-04-13 06:53:00,36.0,36.0,29.99,East,80,5.0,-999.0,100,-99.99,,,-99.99,,2013-04-13 11:53:00,
2013-04-13 07:08:00,36.0,36.0,29.99,East,80,5.0,-999.0,100,-99.99,,,-99.99,,2013-04-13 12:08:00,
2013-04-13 07:14:00,37.0,36.0,29.99,East,80,3.0,-999.0,93,-99.99,,,-99.99,,2013-04-13 12:14:00,
2013-04-13 07:24:00,37.0,36.0,29.99,East,80,5.0,-999.0,93,-99.99,,,-99.99,,2013-04-13 12:24:00,
2013-04-13 07:34:00,39.0,36.0,29.99,East,90,5.0,-999.0,86,-99.99,,,-99.99,,2013-04-13 12:34:00,
2013-04-13 07:45:00,39.0,36.0,29.99,East,100,5.0,-999.0,86,-99.99,,,-99.99,,2013-04-13 12:45:00,
2013-04-13 07:53:00,39.0,36.0,29.99,ESE,110,6.0,-999.0,86,-99.99,,,-99.99,,2013-04-13 12:53:00,
2013-04-13 08:05:00,39.0,36.0,29.99,ESE,110,6.0,-999.0,86,-99.99,,,-99.99,,2013-04-13 13:05:00,
2013-04-13 08:14:00,41.0,37.0,29.99,ESE,110,7.0,-999.0,86,-99.99,,,-99.99,,2013-04-13 13:14:00,
2013-04-13 08:24:00,43.0,37.0,29.99,ESE,120,8.0,-999.0,81,-99.99,,,-99.99,,2013-04-13 13:24:00,
2013-04-13 08:34:00,45.0,37.0,29.98,ESE,120,9.0,-999.0,75,-99.99,,,-99.99,,2013-04-13 13:34:00,
2013-04-13 08:45:00,45.0,37.0,29.98,ESE,120,9.0,-999.0,75,-99.99,,,-99.99,,2013-04-13 13:45:00,
2013-04-13 08:53:00,46.0,39.0,29.98,ESE,120,10.0,-999.0,75,-99.99,,,-99.99,,2013-04-13 13:53:00,
2013-04-13 09:04:00,46.0,39.0,29.98,ESE,120,10.0,-999.0,75,-99.99,,,-99.99,,2013-04-13 14:04:00,
2013-04-13 09:13:00,46.0,39.0,29.98,ESE,120,8.0,-999.0,75,-99.99,,,-99.99,,2013-04-13 14:13:00,
2013-04-13 09:23:00,48.0,39.0,29.97,SE,130,13.0,-999.0,70,-99.99,,,-99.99,,2013-04-13 14:23:00,
2013-04-13 09:35:00,50.0,39.0,29.97,ESE,120,12.0,-999.0,66,-99.99,,,-99.99,,2013-04-13 14:35:00,
2013-04-13 09:45:00,50.0,39.0,29.97,ESE,120,12.0,-999.0,66,-99.99,,,-99.99,,2013-04-13 14:45:00,
2013-04-13 09:54:00,52.0,39.0,29.96,SE,130,13.0,18.0,61,-99.99,,,-99.99,,2013-04-13 14:54:00,
2013-04-13 10:04:00,52.0,39.0,29.96,SE,130,13.0,18.0,61,-99.99,,,-99.99,,2013-04-13 15:04:00,
2013-04-13 10:14:00,54.0,37.0,29.96,SE,130,13.0,21.0,54,-99.99,,,-99.99,,2013-04-13 15:14:00,
2013-04-13 10:27:00,54.0,39.0,29.95,SE,130,12.0,18.0,58,-99.99,,,-99.99,,2013-04-13 15:27:00,
2013-04-13 10:35:00,54.0,37.0,29.95,ESE,120,14.0,17.0,54,-99.99,,,-99.99,,2013-04-13 15:35:00,
2013-04-13 10:43:00,55.0,37.0,29.95,SE,130,10.0,-999.0,50,-99.99,,,-99.99,,2013-04-13 15:43:00,
2013-04-13 10:54:00,55.0,39.0,29.94,SE,130,10.0,18.0,54,-99.99,,,-99.99,,2013-04-13 15:54:00,
2013-04-13 11:05:00,55.0,39.0,29.94,SE,130,10.0,18.0,54,-99.99,,,-99.99,,2013-04-13 16:05:00,
2013-04-13 11:14:00,55.0,39.0,29.93,ESE,120,13.0,18.0,54,-99.99,,,-99.99,,2013-04-13 16:14:00,
2013-04-13 11:24:00,57.0,41.0,29.92,SE,140,12.0,17.0,54,-99.99,,,-99.99,,2013-04-13 16:24:00,
2013-04-13 11:34:00,57.0,41.0,29.92,SE,130,13.0,20.0,54,-99.99,,,-99.99,,2013-04-13 16:34:00,
2013-04-13 11:44:00,57.0,41.0,29.92,SSE,150,12.0,20.0,54,-99.99,,,-99.99,,2013-04-13 16:44:00,
2013-04-13 11:53:00,59.0,43.0,29.91,SE,140,10.0,20.0,54,-99.99,,,-99.99,,2013-04-13 16:53:00,
2013-04-13 12:05:00,59.0,43.0,29.91,SE,140,10.0,20.0,54,-99.99,,,-99.99,,2013-04-13 17:05:00,
2013-04-13 12:20:00,61.0,45.0,29.90,SSE,150,14.0,17.0,55,-99.99,,,-99.99,,2013-04-13 17:20:00,
2013-04-13 12:35:00,61.0,46.0,29.88,SSE,150,14.0,23.0,59,-99.99,,,-99.99,,2013-04-13 17:35:00,
2013-04-13 12:43:00,63.0,46.0,29.87,SSE,160,15.0,23.0,55,-99.99,,,-99.99,,2013-04-13 17:43:00,
2013-04-13 13:05:00,63.0,46.0,29.86,SSE,160,16.0,24.0,55,-99.99,,,-99.99,,2013-04-13 18:05:00,
2013-04-13 13:14:00,63.0,46.0,29.85,SE,140,16.0,22.0,55,-99.99,,,-99.99,,2013-04-13 18:14:00,
2013-04-13 13:24:00,64.0,48.0,29.84,SSE,160,17.0,24.0,55,-99.99,,,-99.99,,2013-04-13 18:24:00,
2013-04-13 13:32:00,64.0,48.0,29.83,SSE,150,15.0,27.0,55,-99.99,,,-99.99,,2013-04-13 18:32:00,
2013-04-13 13:42:00,64.0,48.0,29.83,SSE,150,20.0,29.0,55,-99.99,,,-99.99,,2013-04-13 18:42:00,
2013-04-13 13:52:00,64.0,48.0,29.81,SSE,160,21.0,28.0,55,-99.99,,,-99.99,,2013-04-13 18:52:00,
2013-04-13 14:03:00,64.0,48.0,29.81,SSE,160,21.0,28.0,55,-99.99,,,-99.99,,2013-04-13 19:03:00,
2013-04-13 14:12:00,64.0,50.0,29.80,SSE,150,18.0,25.0,59,-99.99,,,-99.99,,2013-04-13 19:12:00,
2013-04-13 14:22:00,66.0,50.0,29.79,SSE,150,16.0,25.0,55,-99.99,,,-99.99,,2013-04-13 19:22:00,
2013-04-13 14:32:00,66.0,50.0,29.78,SSE,150,20.0,29.0,55,-99.99,,,-99.99,,2013-04-13 19:32:00,
2013-04-13 14:42:00,64.0,50.0,29.78,SSE,160,22.0,29.0,59,-99.99,,,-99.99,,2013-04-13 19:42:00,
2013-04-13 14:52:00,64.0,50.0,29.77,SSE,160,18.0,28.0,59,-99.99,,,-99.99,,2013-04-13 19:52:00,
2013-04-13 15:02:00,64.0,50.0,29.77,SSE,160,18.0,28.0,59,-99.99,,,-99.99,,2013-04-13 20:02:00,
2013-04-13 15:12:00,66.0,52.0,29.76,SSE,160,17.0,24.0,59,-99.99,,,-99.99,,2013-04-13 20:12:00,
2013-04-13 15:22:00,66.0,52.0,29.75,SSE,150,21.0,27.0,59,-99.99,,,-99.99,,2013-04-13 20:22:00,
2013-04-13 15:32:00,68.0,52.0,29.74,SSE,160,20.0,25.0,56,-99.99,,,-99.99,,2013-04-13 20:32:00,
2013-04-13 15:42:00,68.0,52.0,29.73,South,170,18.0,25.0,56,-99.99,,,-99.99,,2013-04-13 20:42:00,
2013-04-13 15:52:00,70.0,50.0,29.72,SSE,160,20.0,31.0,49,-99.99,,,-99.99,,2013-04-13 20:52:00,
2013-04-13 16:02:00,70.0,50.0,29.72,SSE,160,20.0,31.0,49,-99.99,,,-99.99,,2013-04-13 21:02:00,
2013-04-13 16:12:00,70.0,50.0,29.71,South,170,20.0,27.0,49,-99.99,,,-99.99,,2013-04-13 21:12:00,
2013-04-13 16:22:00,70.0,50.0,29.70,South,170,20.0,28.0,49,-99.99,,,-99.99,,2013-04-13 21:22:00,
2013-04-13 16:32:00,72.0,52.0,29.69,South,170,20.0,30.0,49,-99.99,,,-99.99,,2013-04-13 21:32:00,
2013-04-13 16:43:00,72.0,52.0,29.68,South,170,17.0,24.0,49,-99.99,,,-99.99,,2013-04-13 21:43:00,
2013-04-13 16:52:00,72.0,52.0,29.67,SSE,160,18.0,27.0,49,-99.99,,,-99.99,,2013-04-13 21:52:00,
2013-04-13 17:03:00,72.0,52.0,29.67,SSE,160,18.0,27.0,49,-99.99,,,-99.99,,2013-04-13 22:03:00,
2013-04-13 17:12:00,72.0,52.0,29.66,South,170,20.0,27.0,49,-99.99,,,-99.99,,2013-04-13 22:12:00,
2013-04-13 17:22:00,72.0,52.0,29.65,South,180,22.0,28.0,49,-99.99,,,-99.99,,2013-04-13 22:22:00,
2013-04-13 17:33:00,73.0,52.0,29.64,South,180,21.0,30.0,46,-99.99,,,-99.99,,2013-04-13 22:33:00,
2013-04-13 17:42:00,73.0,52.0,29.63,South,180,21.0,30.0,46,-99.99,,,-99.99,,2013-04-13 22:42:00,
2013-04-13 17:52:00,73.0,52.0,29.63,South,180,23.0,31.0,46,-99.99,,,-99.99,,2013-04-13 22:52:00,
2013-04-13 18:02:00,73.0,52.0,29.63,South,180,23.0,31.0,46,-99.99,,,-99.99,,2013-04-13 23:02:00,
2013-04-13 18:12:00,73.0,52.0,29.62,South,190,24.0,35.0,46,-99.99,,,-99.99,,2013-04-13 23:12:00,
2013-04-13 18:22:00,73.0,50.0,29.61,SSE,160,22.0,31.0,43,-99.99,,,-99.99,,2013-04-13 23:22:00,
2013-04-13 18:32:00,73.0,50.0,29.60,South,180,18.0,30.0,43,-99.99,,,-99.99,,2013-04-13 23:32:00,
2013-04-13 18:41:00,73.0,50.0,29.60,South,170,20.0,31.0,43,-99.99,,,-99.99,,2013-04-13 23:41:00,
2013-04-13 18:52:00,72.0,48.0,29.60,South,170,20.0,28.0,43,-99.99,,,-99.99,,2013-04-13 23:52:00,
2013-04-13 19:02:00,72.0,48.0,29.60,South,170,20.0,28.0,43,-99.99,,,-99.99,,2013-04-14 00:02:00,
2013-04-13 19:12:00,72.0,46.0,29.60,South,180,20.0,27.0,40,-99.99,,,-99.99,,2013-04-14 00:12:00,
2013-04-13 19:22:00,72.0,46.0,29.60,South,170,23.0,31.0,40,-99.99,,,-99.99,,2013-04-14 00:22:00,
2013-04-13 19:32:00,72.0,46.0,29.60,South,170,18.0,25.0,40,-99.99,,,-99.99,,2013-04-14 00:32:00,
2013-04-13 19:42:00,72.0,46.0,29.60,South,170,17.0,27.0,40,-99.99,,,-99.99,,2013-04-14 00:42:00,
2013-04-13 19:52:00,70.0,46.0,29.60,South,170,18.0,24.0,43,-99.99,,,-99.99,,2013-04-14 00:52:00,
2013-04-13 20:02:00,70.0,46.0,29.60,South,170,18.0,24.0,43,-99.99,,,-99.99,,2013-04-14 01:02:00,
2013-04-13 20:12:00,68.0,46.0,29.61,South,170,17.0,25.0,45,-99.99,,,-99.99,,2013-04-14 01:12:00,
2013-04-13 20:22:00,68.0,46.0,29.62,South,170,20.0,28.0,45,-99.99,,,-99.99,,2013-04-14 01:22:00,
2013-04-13 20:32:00,66.0,48.0,29.60,South,170,21.0,28.0,52,-99.99,,,-99.99,,2013-04-14 01:32:00,
2013-04-13 20:42:00,66.0,48.0,29.60,SSE,160,20.0,25.0,52,-99.99,,,-99.99,,2013-04-14 01:42:00,
2013-04-13 20:52:00,66.0,48.0,29.60,South,170,20.0,24.0,52,-99.99,,,-99.99,,2013-04-14 01:52:00,
2013-04-13 21:02:00,66.0,48.0,29.60,South,170,20.0,24.0,52,-99.99,,,-99.99,,2013-04-14 02:02:00,
2013-04-13 21:12:00,66.0,46.0,29.60,South,170,18.0,25.0,48,-99.99,,,-99.99,,2013-04-14 02:12:00,
2013-04-13 21:22:00,64.0,46.0,29.60,South,170,20.0,25.0,51,-99.99,,,-99.99,,2013-04-14 02:22:00,
2013-04-13 21:32:00,64.0,46.0,29.60,SSE,160,18.0,25.0,51,-99.99,,,-99.99,,2013-04-14 02:32:00,
2013-04-13 21:42:00,64.0,46.0,29.60,SSE,160,17.0,25.0,51,-99.99,,,-99.99,,2013-04-14 02:42:00,
2013-04-13 21:52:00,64.0,46.0,29.59,SSE,160,16.0,24.0,51,-99.99,,,-99.99,,2013-04-14 02:52:00,
2013-04-13 22:02:00,64.0,46.0,29.59,SSE,160,16.0,24.0,51,-99.99,,,-99.99,,2013-04-14 03:02:00,
2013-04-13 22:12:00,63.0,48.0,29.59,SSE,160,16.0,24.0,59,-99.99,,,-99.99,,2013-04-14 03:12:00,
2013-04-13 22:22:00,63.0,48.0,29.60,SSE,160,21.0,24.0,59,-99.99,,,-99.99,,2013-04-14 03:22:00,
2013-04-13 22:33:00,63.0,48.0,29.60,SSE,160,17.0,27.0,59,-99.99,,,-99.99,,2013-04-14 03:33:00,
2013-04-13 22:42:00,63.0,48.0,29.60,SSE,160,18.0,27.0,59,-99.99,,,-99.99,,2013-04-14 03:42:00,
2013-04-13 22:53:00,63.0,48.0,29.59,SSE,160,21.0,30.0,59,-99.99,,,-99.99,,2013-04-14 03:53:00,
2013-04-13 23:02:00,63.0,48.0,29.59,SSE,160,21.0,30.0,59,-99.99,,,-99.99,,2013-04-14 04:02:00,
2013-04-13 23:12:00,63.0,48.0,29.59,SSE,160,18.0,25.0,59,-99.99,,,-99.99,,2013-04-14 04:12:00,
2013-04-13 23:23:00,61.0,48.0,29.59,SSE,160,21.0,27.0,63,-99.99,,,-99.99,,2013-04-14 04:23:00,
2013-04-13 23:32:00,61.0,48.0,29.58,SSE,160,18.0,27.0,63,-99.99,,,-99.99,,2013-04-14 04:32:00,
2013-04-13 23:42:00,61.0,48.0,29.58,SSE,160,21.0,28.0,63,-99.99,,,-99.99,,2013-04-14 04:42:00,
2013-04-13 23:52:00,61.0,48.0,29.57,SSE,160,22.0,27.0,63,-99.99,,,-99.99,,2013-04-14 04:52:00,